GW4066 Weather Reports


time (UTC)temp
F
wind
direction
speed
knots
gust
knots
rain 1hr
in
rain 24hr
in
rain mn
in
humidity
%
barometer
mb
20260510044504 62 151 1.7 4.3 0.00 0.00 0.00 68 1027.1
20260510043604 62 132 0.9 5.2 0.00 0.00 0.00 68 1027.1
20260510042704 62 154 1.7 6.1 0.00 0.00 0.00 68 1026.9
20260510041804 62 168 0.9 3.5 0.00 0.00 0.00 67 1026.9
20260510040904 62 182 0.9 6.1 0.00 0.00 0.00 67 1027.1
20260510040005 62 163 1.7 7.0 0.00 0.00 0.00 67 1027.1
20260510035404 62 151 0.9 4.3 0.00 0.00 0.00 67 1027.1
20260510034504 61 165 1.7 6.1 0.00 0.00 0.00 67 1027.2
20260510033625 61 171 3.5 7.8 0.00 0.00 0.00 68 1027.2
20260510032725 61 165 2.6 7.8 0.00 0.00 0.00 68 1027.3
20260510031825 61 173 2.6 6.1 0.00 0.00 0.00 68 1027.3
20260510030904 61 170 2.6 7.8 0.00 0.00 0.00 69 1027.3
20260510030004 61 172 2.6 7.8 0.00 0.00 0.00 68 1027.4
20260510025404 61 164 1.7 6.1 0.00 0.00 0.00 68 1027.5
20260510024504 61 0 0.0 0.0 0.00 0.00 0.00 69 1027.5
20260510023604 61 180 0.9 5.2 0.00 0.00 0.00 69 1027.8
20260510022704 60 183 2.6 5.2 0.00 0.00 0.00 69 1027.8
20260510021825 60 169 3.5 7.8 0.00 0.00 0.00 69 1028.0
20260510020904 60 164 2.6 7.0 0.00 0.00 0.00 69 1028.1
20260510020005 60 181 0.0 2.6 0.00 0.00 0.00 69 1028.1
20260510015425 60 169 1.7 10.4 0.00 0.00 0.00 69 1028.2
20260510014504 60 171 5.2 10.4 0.00 0.00 0.00 69 1028.5
20260510013604 60 179 2.6 7.0 0.00 0.00 0.00 72 1028.5
20260510012704 60 185 2.6 7.8 0.00 0.00 0.00 70 1028.6
20260510011805 60 179 0.9 4.3 0.00 0.00 0.00 70 1028.7
20260510010904 60 193 0.9 4.3 0.00 0.00 0.00 70 1028.7
20260510010004 60 163 0.9 5.2 0.00 0.00 0.00 70 1028.6
20260510005404 60 165 2.6 9.6 0.00 0.00 0.00 70 1028.6
20260510004504 60 174 4.3 9.6 0.00 0.00 0.00 72 1028.6
20260510003625 60 185 3.5 8.7 0.00 0.00 0.00 71 1028.6
20260510002704 59 196 1.7 7.0 0.00 0.00 0.00 74 1028.7
20260510001826 59 204 1.7 5.2 0.00 0.00 0.00 77 1028.7
20260510000904 58 206 0.9 3.5 0.00 0.00 0.00 82 1028.6
20260510000004 58 222 1.7 6.1 0.00 0.00 0.00 84 1028.7
20260509235404 58 219 0.9 4.3 0.00 0.00 0.00 86 1028.6
20260509234504 57 217 1.7 4.3 0.00 0.00 0.00 88 1028.7
20260509233604 57 219 0.9 5.2 0.00 0.00 0.00 88 1028.6
20260509232704 57 221 0.9 4.3 0.00 0.00 0.00 89 1028.6
20260509231804 56 223 1.7 4.3 0.00 0.00 0.00 90 1028.6
20260509230905 56 217 0.9 4.3 0.00 0.00 0.00 90 1028.6
20260509230004 56 224 0.9 5.2 0.00 0.00 0.00 91 1028.5
20260509225404 56 220 1.7 4.3 0.00 0.00 0.00 91 1028.5
20260509224504 56 221 0.9 4.3 0.00 0.00 0.00 92 1028.4
20260509223625 55 250 0.9 3.5 0.00 0.00 0.00 92 1028.3
20260509222704 55 250 0.0 2.6 0.00 0.00 0.00 92 1028.2
20260509221805 55 262 0.0 2.6 0.00 0.00 0.00 92 1028.2
20260509220904 55 275 0.0 2.6 0.00 0.00 0.00 93 1028.1
20260509220004 55 281 0.0 1.7 0.00 0.00 0.00 93 1027.8
20260509215405 55 283 0.0 2.6 0.00 0.00 0.00 93 1027.9
20260509214504 55 301 0.0 1.7 0.00 0.00 0.00 93 1027.7
20260509213605 55 0 0.0 0.0 0.00 0.00 0.00 93 1027.7
20260509212704 54 0 0.0 0.0 0.00 0.00 0.00 93 1027.4
20260509211804 55 238 0.0 0.9 0.00 0.00 0.00 93 1027.3
20260509210925 54 239 0.0 2.6 0.00 0.00 0.00 93 1027.2
20260509210004 54 238 0.0 2.6 0.00 0.00 0.00 93 1027.2
20260509205404 54 240 0.0 1.7 0.00 0.00 0.00 93 1027.2
20260509204504 54 243 0.0 2.6 0.00 0.00 0.00 93 1027.1
20260509203625 55 240 0.0 0.9 0.00 0.00 0.00 93 1027.0
20260509202704 55 0 0.0 0.0 0.00 0.00 0.00 93 1027.0
20260509201826 55 0 0.0 0.0 0.00 0.00 0.00 93 1026.8
20260509200925 55 0 0.0 0.0 0.00 0.00 0.00 93 1026.8
20260509200025 55 0 0.0 0.0 0.00 0.00 0.00 93 1026.7
20260509195425 55 0 0.0 0.0 0.00 0.00 0.00 93 1026.7
20260509194504 55 0 0.0 0.0 0.00 0.00 0.00 93 1026.5
20260509193604 55 235 0.0 0.9 0.00 0.00 0.00 93 1026.4
20260509192705 55 0 0.0 0.0 0.00 0.00 0.00 93 1026.5
20260509191804 55 235 0.0 1.7 0.00 0.00 0.00 93 1026.2
20260509190904 55 234 0.0 1.7 0.00 0.00 0.00 93 1026.2
20260509190004 55 234 0.0 2.6 0.00 0.00 0.00 93 1026.2
20260509185404 55 230 0.0 0.9 0.00 0.00 0.00 93 1026.2
20260509184525 55 225 0.0 2.6 0.00 0.00 0.00 92 1026.2
20260509183625 55 223 0.0 2.6 0.00 0.00 0.00 93 1026.0
20260509182704 55 228 0.9 3.5 0.00 0.00 0.00 92 1026.0
20260509181826 55 225 0.0 1.7 0.00 0.00 0.00 92 1025.8
20260509180904 55 225 0.0 1.7 0.00 0.00 0.00 92 1025.7
20260509180004 55 206 0.0 3.5 0.00 0.00 0.00 92 1025.9
20260509175404 55 195 0.9 3.5 0.00 0.00 0.00 92 1025.7
20260509174504 55 214 0.9 3.5 0.00 0.00 0.00 92 1025.8
20260509173625 55 227 0.9 3.5 0.00 0.00 0.00 92 1025.7
20260509172704 55 235 0.0 3.5 0.00 0.00 0.00 92 1025.7
20260509171804 55 239 0.0 3.5 0.00 0.00 0.00 92 1025.7
20260509170904 55 231 0.0 2.6 0.00 0.00 0.00 92 1025.8
20260509170025 56 229 0.9 3.5 0.00 0.00 0.00 91 1025.9
20260509165404 56 225 1.7 4.3 0.00 0.00 0.00 91 1026.0
20260509164525 56 221 1.7 4.3 0.00 0.00 0.00 91 1025.9
20260509163604 56 206 1.7 7.0 0.00 0.00 0.00 90 1025.9
20260509162704 56 225 0.9 4.3 0.00 0.00 0.00 90 1026.0
20260509161804 56 229 0.9 2.6 0.00 0.00 0.00 90 1026.0
20260509160904 56 230 0.0 2.6 0.00 0.00 0.00 89 1026.1
20260509160004 56 237 0.0 2.6 0.00 0.00 0.00 89 1026.0
20260509155403 56 237 0.0 2.6 0.00 0.00 0.00 89 1026.1
20260509154525 56 236 0.9 2.6 0.00 0.00 0.00 89 1025.9
20260509153624 56 234 0.9 3.5 0.00 0.00 0.00 89 1026.2
20260509152705 56 217 0.9 3.5 0.00 0.00 0.00 89 1026.2
20260509151804 56 207 0.9 3.5 0.00 0.00 0.00 89 1026.0
20260509150926 57 222 0.9 3.5 0.00 0.00 0.00 89 1026.1
20260509150004 57 206 0.0 2.6 0.00 0.00 0.00 88 1026.1
20260509145405 57 195 0.9 4.3 0.00 0.00 0.00 88 1026.1
20260509144504 57 209 2.6 5.2 0.00 0.00 0.00 88 1026.0
20260509143605 57 208 1.7 6.1 0.00 0.00 0.00 88 1026.0
20260509142725 57 209 2.6 6.1 0.00 0.00 0.00 88 1026.1
20260509141804 57 193 1.7 5.2 0.00 0.00 0.00 89 1026.1
20260509140904 57 193 3.5 6.1 0.00 0.00 0.00 89 1026.0
20260509140025 57 195 1.7 5.2 0.00 0.00 0.00 89 1026.0
20260509135404 57 198 1.7 5.2 0.00 0.00 0.00 89 1026.2
20260509134504 57 192 2.6 7.0 0.00 0.00 0.00 90 1026.1
20260509133603 57 192 1.7 5.2 0.00 0.00 0.00 90 1026.0
20260509132704 58 194 1.7 4.3 0.00 0.00 0.00 90 1026.0
20260509131804 58 192 0.9 3.5 0.00 0.00 0.00 90 1025.9
20260509130904 58 194 0.0 2.6 0.00 0.00 0.00 90 1026.1
20260509130005 58 0 0.0 0.0 0.00 0.00 0.00 90 1026.1
20260509125404 58 0 0.0 0.0 0.00 0.00 0.00 90 1026.1
20260509124504 58 0 0.0 0.0 0.00 0.00 0.00 89 1026.1
20260509123604 58 0 0.0 0.0 0.00 0.00 0.00 90 1026.2
20260509122705 58 0 0.0 0.0 0.00 0.00 0.00 89 1026.1
20260509121804 58 0 0.0 0.0 0.00 0.00 0.00 89 1026.0
20260509120905 58 194 0.0 2.6 0.00 0.00 0.00 89 1026.0
20260509120004 58 194 0.9 2.6 0.00 0.00 0.00 89 1026.0
20260509115404 58 194 1.7 3.5 0.00 0.00 0.00 89 1026.0
20260509114504 58 191 1.7 3.5 0.00 0.00 0.00 88 1026.1
20260509113604 58 192 0.0 2.6 0.00 0.00 0.00 88 1025.9
20260509112704 58 192 0.0 2.6 0.00 0.00 0.00 88 1025.8
20260509111803 58 175 0.9 3.5 0.00 0.00 0.00 88 1025.7
20260509110903 58 169 0.9 3.5 0.00 0.00 0.00 88 1025.7
20260509110004 58 0 0.0 0.0 0.00 0.00 0.00 88 1025.7
20260509105404 58 0 0.0 0.0 0.00 0.00 0.00 88 1025.7
20260509104504 58 164 0.9 3.5 0.00 0.00 0.00 88 1025.6
20260509103604 58 161 0.9 4.3 0.00 0.00 0.00 88 1025.6
20260509102704 58 157 0.9 4.3 0.00 0.00 0.00 88 1025.6
20260509101804 58 0 0.0 0.0 0.00 0.00 0.00 88 1025.5
20260509100925 58 0 0.0 0.0 0.00 0.00 0.00 88 1025.7
20260509100005 57 0 0.0 0.0 0.00 0.00 0.00 88 1025.6
20260509095404 57 153 0.0 3.5 0.00 0.00 0.00 88 1025.7
20260509094504 57 159 0.0 4.3 0.00 0.00 0.00 88 1025.6
20260509093604 57 0 0.0 0.0 0.00 0.00 0.00 88 1025.5
20260509092725 57 0 0.0 0.0 0.00 0.00 0.00 88 1025.5
20260509091804 57 0 0.0 0.0 0.00 0.00 0.00 88 1025.5
20260509090904 57 0 0.0 0.0 0.00 0.00 0.00 88 1025.4
20260509090004 57 0 0.0 0.0 0.00 0.00 0.00 88 1025.5
20260509085404 57 0 0.0 0.0 0.00 0.00 0.00 88 1025.3
20260509084504 57 0 0.0 0.0 0.00 0.00 0.00 87 1025.4
20260509083604 57 0 0.0 0.0 0.00 0.00 0.00 87 1025.2
20260509082704 57 0 0.0 0.0 0.00 0.00 0.00 86 1025.2
20260509081804 57 0 0.0 0.0 0.00 0.00 0.00 86 1025.1
20260509080904 58 0 0.0 0.0 0.00 0.00 0.00 86 1025.0
20260509080004 58 0 0.0 0.0 0.00 0.00 0.00 85 1024.9
20260509075425 58 0 0.0 0.0 0.00 0.00 0.00 85 1024.9
20260509074504 58 0 0.0 0.0 0.00 0.00 0.00 84 1024.8
20260509073604 59 168 0.9 4.3 0.00 0.00 0.00 84 1024.7
20260509072704 59 164 2.6 4.3 0.00 0.00 0.00 83 1024.5
20260509071804 60 174 1.7 4.3 0.00 0.00 0.00 82 1024.5
20260509070904 60 173 1.7 7.0 0.00 0.00 0.00 81 1024.3
20260509070004 60 168 2.6 7.0 0.00 0.00 0.00 80 1024.4
20260509065425 61 169 2.6 6.1 0.00 0.00 0.00 79 1024.4
20260509064504 61 163 1.7 5.2 0.00 0.00 0.00 78 1024.3
20260509063603 61 167 3.5 7.0 0.00 0.00 0.00 78 1024.2
20260509062704 62 167 3.5 7.8 0.00 0.00 0.00 76 1024.1
20260509061804 62 158 2.6 7.0 0.00 0.00 0.00 77 1024.1
20260509060904 62 167 4.3 9.6 0.00 0.00 0.00 75 1024.1
20260509060005 63 173 1.7 4.3 0.00 0.00 0.00 75 1024.1
20260509055404 63 165 2.6 5.2 0.00 0.00 0.00 74 1024.1
20260509054504 63 169 3.5 8.7 0.00 0.00 0.00 74 1024.0
20260509053625 63 179 3.5 7.8 0.00 0.00 0.00 74 1023.8
20260509052725 62 191 2.6 6.1 0.00 0.00 0.00 76 1023.8
20260509051804 62 172 2.6 7.0 0.00 0.00 0.00 76 1024.0
20260509050904 62 180 3.5 8.7 0.00 0.00 0.00 76 1024.0
20260509050003 62 178 4.3 8.7 0.00 0.00 0.00 76 1024.2
20260509045404 62 177 3.5 8.7 0.00 0.00 0.00 76 1024.0